{"data":{"norad_id":55497,"intl_designator":"2023-015BA","name":"STARLINK-5363","alt_names":[],"object_type":"PAYLOAD","status":"ACTIVE","operator":null,"country":"US","launch_date":"2023-02-02","launch_site_code":"AFETR","launch_vehicle":null,"mission":null,"orbit_class":"UNKNOWN","rcs_meters":null,"size_class":null,"mass_kg":null,"dimensions":null,"purposes":["comms"],"wikipedia_slug":null,"has_3d_model":false,"image_url":null,"decayed_at":null,"tle_current":{"epoch":"2026-05-25T01:28:50.465280Z","epoch_age_seconds":63749,"freshness":"FRESH","line1":"1 55497U 23015BA  26145.06169520 -.00000038  00000+0  81349-5 0  9999","line2":"2 55497  42.9994 268.5670 0001244 313.8022  46.2727 15.27573836182278","mean_motion":15.27573836,"eccentricity":0.0001244,"inclination_deg":42.9994,"raan_deg":268.567,"arg_perigee_deg":313.8022,"mean_anomaly_deg":46.2727,"bstar":8.1349e-6,"rev_number":18227,"period_min":94.267129094767,"perigee_km":482.21401948877,"apogee_km":483.92108718164,"semimajor_km":6861.2045533352,"source":"CELESTRAK","updated_at":"2026-05-25T13:38:17.831816Z"}}}